START_TIME,STEP,MOV.,M6,t_acc.,M7,t_acc.,M19,t_acc.,H36,t_acc.
1981-08-28 12:00:27.810 ,5,0,1.,12.0,0.,12.0,0.,12.0,0.,12.0
1981-08-28 12:00:39.810 ,5,0,0.,12.0,0.,12.0,0.,12.0,0.,12.0
1981-08-28 12:00:51.810 ,4,1,0.,12.0,0.,12.0,0.,12.0,0.,12.0
1981-08-28 12:01:03.810 ,4,1,0.,12.0,0.,12.0,0.,12.0,0.,12.0
1981-08-28 12:01:15.810 ,0,0,0.,12.0,0.,12.0,0.,12.0,0.,12.0
1981-08-28 12:01:27.810 ,0,0,0.,12.0,0.,12.0,0.,12.0,0.,12.0
1981-08-28 12:01:39.810 ,3,1,0.,12.0,0.,12.0,0.,12.0,0.,12.0
1981-08-28 12:01:51.810 ,3,1,0.,12.0,0.,12.0,0.,12.0,0.,12.0
1981-08-28 12:02:03.810 ,3,0,0.,12.0,0.,12.0,0.,12.0,0.,12.0
1981-08-28 12:02:15.810 ,3,0,0.,12.0,0.,12.0,0.,12.0,0.,12.0
1981-08-28 12:02:27.810 ,2,1,0.,12.0,0.,12.0,0.,12.0,0.,12.0
1981-08-28 12:02:39.810 ,2,1,0.,12.0,0.,12.0,0.,12.0,0.,12.0
1981-08-28 12:02:51.810 ,2,0,0.,12.0,0.,12.0,0.,12.0,0.,12.0
1981-08-28 12:03:03.810 ,2,0,0.,12.0,0.,12.0,0.,12.0,0.,12.0
1981-08-28 12:03:15.810 ,1,1,0.,12.0,0.,12.0,0.,12.0,0.,12.0
1981-08-28 12:03:27.810 ,1,1,0.,12.0,0.,12.0,0.,12.0,0.,12.0
1981-08-28 12:03:39.810 ,1,0,0.,12.0,0.,12.0,0.,12.0,0.,12.0
1981-08-28 12:03:51.810 ,1,0,0.,12.0,0.,12.0,0.,12.0,0.,12.0
1981-08-28 12:04:03.810 ,0,1,0.,12.0,0.,12.0,0.,12.0,0.,12.0
1981-08-28 12:04:15.810 ,0,1,0.,12.0,0.,12.0,0.,12.0,0.,12.0
1981-08-28 12:04:27.810 ,0,0,0.,12.0,0.,12.0,0.,12.0,0.,12.0
1981-08-28 12:04:39.810 ,0,0,0.,12.0,0.,12.0,0.,12.0,0.,12.0
1981-08-28 12:04:51.810 ,0,1,0.,12.0,0.,12.0,0.,12.0,0.,12.0
1981-08-28 12:05:03.810 ,0,1,0.,12.0,0.,12.0,0.,12.0,0.,12.0
1981-08-28 12:05:15.810 ,0,0,0.,12.0,0.,12.0,0.,12.0,0.,12.0
1981-08-28 12:05:27.810 ,0,0,0.,12.0,0.,12.0,0.,12.0,0.,12.0
1981-08-28 12:05:39.810 ,1,1,0.,12.0,0.,12.0,0.,12.0,0.,12.0
1981-08-28 12:05:51.810 ,1,1,0.,12.0,0.,12.0,0.,12.0,0.,12.0
1981-08-28 12:06:03.810 ,1,0,0.,12.0,0.,12.0,0.,12.0,0.,12.0
1981-08-28 12:06:15.810 ,1,0,0.,12.0,0.,12.0,0.,12.0,0.,12.0
1981-08-28 12:06:27.810 ,2,1,0.,12.0,0.,12.0,0.,12.0,0.,12.0
1981-08-28 12:06:39.810 ,2,1,0.,12.0,0.,12.0,0.,12.0,0.,12.0
1981-08-28 12:06:51.810 ,2,0,0.,12.0,0.,12.0,0.,12.0,0.,12.0
1981-08-28 12:07:03.810 ,2,0,0.,12.0,0.,12.0,0.,12.0,0.,12.0
1981-08-28 12:07:15.810 ,3,1,0.,12.0,0.,12.0,0.,12.0,0.,12.0
1981-08-28 12:07:27.810 ,3,1,0.,12.0,0.,12.0,0.,12.0,0.,12.0
1981-08-28 12:07:39.810 ,3,0,0.,12.0,0.,12.0,0.,12.0,0.,12.0
1981-08-28 12:07:51.810 ,3,0,0.,12.0,0.,12.0,0.,12.0,0.,12.0
1981-08-28 12:08:03.810 ,4,1,0.,12.0,0.,12.0,0.,12.0,0.,12.0
1981-08-28 12:08:15.810 ,4,1,0.,12.0,0.,12.0,0.,12.0,0.,12.0
1981-08-28 12:08:27.810 ,0,0,0.,12.0,0.,12.0,0.,12.0,0.,12.0
1981-08-28 12:08:39.810 ,0,0,0.,12.0,0.,12.0,0.,12.0,0.,12.0
1981-08-28 12:12:06.810 ,0,0,0.,12.0,0.,12.0,0.,12.0,0.,12.0
1981-08-28 12:12:18.810 ,0,0,0.,12.0,0.,12.0,0.,12.0,0.,12.0
1981-08-28 12:12:27.810 ,4,1,0.,12.0,0.,12.0,0.,12.0,0.,12.0
1981-08-28 12:12:39.810 ,4,1,0.,12.0,0.,12.0,0.,12.0,0.,12.0
1981-08-28 12:12:51.810 ,3,1,0.,12.0,0.,12.0,0.,12.0,0.,12.0
1981-08-28 12:13:03.810 ,3,1,0.,12.0,0.,12.0,0.,12.0,0.,12.0
1981-08-28 12:13:15.810 ,2,1,0.,12.0,0.,12.0,0.,12.0,0.,12.0
1981-08-28 12:13:27.810 ,2,1,0.,12.0,0.,12.0,0.,12.0,0.,12.0
1981-08-28 12:13:39.810 ,1,1,0.,12.0,0.,12.0,0.,12.0,0.,12.0
1981-08-28 12:13:51.810 ,1,1,0.,12.0,0.,12.0,0.,12.0,0.,12.0
1981-08-28 12:14:03.810 ,0,1,0.,12.0,0.,12.0,0.,12.0,0.,12.0
1981-08-28 12:14:15.810 ,0,1,0.,12.0,0.,12.0,0.,12.0,0.,12.0
1981-08-28 12:14:27.810 ,0,1,0.,12.0,0.,12.0,0.,12.0,0.,12.0
1981-08-28 12:14:39.810 ,0,1,0.,12.0,0.,12.0,0.,12.0,0.,12.0
1981-08-28 12:14:51.810 ,1,1,0.,12.0,0.,12.0,0.,12.0,0.,12.0
1981-08-28 12:15:03.810 ,1,1,0.,12.0,0.,12.0,0.,12.0,0.,12.0
1981-08-28 12:15:15.810 ,2,1,0.,12.0,0.,12.0,0.,12.0,0.,12.0
1981-08-28 12:15:27.810 ,2,1,0.,12.0,0.,12.0,0.,12.0,0.,12.0
1981-08-28 12:15:39.810 ,3,1,0.,12.0,0.,12.0,0.,12.0,0.,12.0
1981-08-28 12:15:51.810 ,3,1,0.,12.0,0.,12.0,0.,12.0,0.,12.0
1981-08-28 12:16:03.810 ,4,1,0.,12.0,0.,12.0,0.,12.0,0.,12.0
1981-08-28 12:16:15.810 ,4,1,0.,12.0,0.,12.0,0.,12.0,0.,12.0
1981-08-28 12:16:27.810 ,5,1,0.,12.0,0.,12.0,0.,12.0,0.,12.0
1981-08-28 12:16:39.810 ,5,1,0.,12.0,0.,12.0,0.,12.0,0.,12.0
1981-08-28 12:16:51.810 ,6,1,0.,12.0,0.,12.0,0.,12.0,0.,12.0
1981-08-28 12:17:03.810 ,6,1,0.,12.0,0.,12.0,0.,12.0,0.,12.0
1981-08-28 12:17:15.810 ,7,1,0.,12.0,0.,12.0,0.,12.0,0.,12.0
1981-08-28 12:17:27.810 ,7,1,0.,12.0,0.,12.0,0.,12.0,0.,12.0
1981-08-28 12:17:39.810 ,7,1,0.,12.0,0.,12.0,0.,12.0,0.,12.0
1981-08-28 12:17:51.810 ,7,1,0.,12.0,0.,12.0,0.,12.0,0.,12.0
1981-08-28 12:18:03.810 ,7,0,0.,12.0,0.,12.0,0.,12.0,0.,12.0
1981-08-28 12:18:15.810 ,7,0,0.,12.0,0.,12.0,0.,12.0,0.,12.0
1981-08-28 12:18:27.810 ,6,1,0.,12.0,0.,12.0,0.,12.0,0.,12.0
1981-08-28 12:18:39.810 ,6,1,0.,12.0,0.,12.0,0.,12.0,0.,12.0
1981-08-28 12:18:51.810 ,6,0,0.,12.0,0.,12.0,0.,12.0,0.,12.0
1981-08-28 12:19:03.810 ,6,0,0.,12.0,0.,12.0,0.,12.0,0.,12.0
1981-08-28 12:19:15.810 ,5,1,0.,12.0,0.,12.0,0.,12.0,0.,12.0
1981-08-28 12:19:27.810 ,5,1,0.,12.0,0.,12.0,0.,12.0,0.,12.0
1981-08-28 12:19:39.810 ,5,0,0.,12.0,0.,12.0,0.,12.0,0.,12.0
1981-08-28 12:19:51.810 ,5,0,0.,12.0,0.,12.0,0.,12.0,0.,12.0
1981-08-28 12:20:03.810 ,4,1,0.,12.0,0.,12.0,0.,12.0,0.,12.0
1981-08-28 12:20:15.810 ,4,1,0.,12.0,0.,12.0,0.,12.0,0.,12.0
1981-08-28 12:20:27.810 ,4,0,0.,12.0,0.,12.0,0.,12.0,0.,12.0
1981-08-28 12:20:39.810 ,4,0,0.,12.0,0.,12.0,0.,12.0,0.,12.0
1981-08-28 12:20:51.810 ,3,1,0.,12.0,0.,12.0,0.,12.0,0.,12.0
1981-08-28 12:21:03.810 ,3,1,0.,12.0,0.,12.0,0.,12.0,0.,12.0
1981-08-28 12:21:15.810 ,3,0,0.,12.0,0.,12.0,0.,12.0,0.,12.0
1981-08-28 12:21:27.810 ,3,0,0.,12.0,0.,12.0,0.,12.0,0.,12.0
1981-08-28 12:21:39.810 ,2,1,0.,12.0,0.,12.0,0.,12.0,0.,12.0
1981-08-28 12:21:51.810 ,2,1,0.,12.0,0.,12.0,0.,12.0,0.,12.0
1981-08-28 12:22:03.810 ,2,0,0.,12.0,0.,12.0,0.,12.0,0.,12.0
1981-08-28 12:22:15.810 ,2,0,0.,12.0,0.,12.0,0.,12.0,0.,12.0
1981-08-28 12:22:27.810 ,1,1,0.,12.0,0.,12.0,0.,12.0,0.,12.0
1981-08-28 12:22:39.810 ,1,1,0.,12.0,0.,12.0,0.,12.0,0.,12.0
1981-08-28 12:22:51.810 ,1,0,0.,12.0,0.,12.0,0.,12.0,0.,12.0
1981-08-28 12:23:03.810 ,1,0,0.,12.0,0.,12.0,0.,12.0,0.,12.0
1981-08-28 12:23:15.810 ,0,1,0.,12.0,0.,12.0,0.,12.0,0.,12.0
1981-08-28 12:23:27.810 ,0,1,0.,12.0,0.,12.0,0.,12.0,0.,12.0
1981-08-28 12:23:39.810 ,0,0,0.,12.0,0.,12.0,0.,12.0,0.,12.0
1981-08-28 12:23:51.810 ,0,0,0.,12.0,0.,12.0,0.,12.0,0.,12.0
1981-08-28 12:24:03.810 ,0,1,0.,12.0,0.,12.0,0.,12.0,0.,12.0
1981-08-28 12:24:15.810 ,0,1,0.,12.0,0.,12.0,0.,12.0,0.,12.0
1981-08-28 12:24:27.810 ,0,0,0.,12.0,0.,12.0,0.,12.0,0.,12.0
1981-08-28 12:24:39.810 ,0,0,0.,12.0,0.,12.0,0.,12.0,0.,12.0
1981-08-28 12:24:51.810 ,1,1,0.,12.0,0.,12.0,0.,12.0,0.,12.0
1981-08-28 12:25:03.810 ,1,1,0.,12.0,0.,12.0,0.,12.0,0.,12.0
1981-08-28 12:25:15.810 ,1,0,0.,12.0,0.,12.0,0.,12.0,0.,12.0
1981-08-28 12:25:27.810 ,1,0,0.,12.0,0.,12.0,0.,12.0,0.,12.0
1981-08-28 12:25:39.810 ,2,1,0.,12.0,0.,12.0,0.,12.0,0.,12.0
1981-08-28 12:25:51.810 ,2,1,0.,12.0,0.,12.0,0.,12.0,0.,12.0
1981-08-28 12:26:03.810 ,2,0,0.,12.0,0.,12.0,0.,12.0,0.,12.0
1981-08-28 12:26:15.810 ,2,0,0.,12.0,0.,12.0,0.,12.0,0.,12.0
1981-08-28 12:26:27.810 ,3,1,0.,12.0,0.,12.0,0.,12.0,0.,12.0
1981-08-28 12:26:39.810 ,3,1,0.,12.0,0.,12.0,0.,12.0,0.,12.0
1981-08-28 12:26:51.810 ,3,0,0.,12.0,0.,12.0,0.,12.0,0.,12.0
1981-08-28 12:27:03.810 ,3,0,0.,12.0,0.,12.0,0.,12.0,0.,12.0
1981-08-28 12:27:15.810 ,4,1,0.,12.0,0.,12.0,0.,12.0,0.,12.0
1981-08-28 12:27:27.810 ,4,1,0.,12.0,0.,12.0,0.,12.0,0.,12.0
1981-08-28 12:27:39.810 ,4,0,0.,12.0,0.,12.0,0.,12.0,0.,12.0
1981-08-28 12:27:51.810 ,4,0,0.,12.0,0.,12.0,0.,12.0,0.,12.0
1981-08-28 12:28:03.810 ,5,1,0.,12.0,0.,12.0,0.,12.0,0.,12.0
1981-08-28 12:28:15.810 ,5,1,0.,12.0,0.,12.0,0.,12.0,0.,12.0
1981-08-28 12:28:27.810 ,5,0,0.,12.0,0.,12.0,0.,12.0,0.,12.0
1981-08-28 12:28:39.810 ,5,0,0.,12.0,0.,12.0,0.,12.0,0.,12.0
1981-08-28 12:28:51.810 ,6,1,0.,12.0,0.,12.0,0.,12.0,0.,12.0
1981-08-28 12:29:03.810 ,6,1,0.,12.0,0.,12.0,0.,12.0,0.,12.0
1981-08-28 12:29:15.810 ,6,0,0.,12.0,0.,12.0,0.,12.0,0.,12.0
1981-08-28 12:29:27.810 ,6,0,0.,12.0,0.,12.0,0.,12.0,0.,12.0
1981-08-28 12:29:39.810 ,7,1,0.,12.0,0.,12.0,0.,12.0,0.,12.0
1981-08-28 12:29:51.810 ,7,1,0.,12.0,0.,12.0,0.,12.0,0.,12.0
1981-08-28 12:30:03.810 ,7,0,0.,12.0,0.,12.0,0.,12.0,0.,12.0
1981-08-28 12:30:15.810 ,7,0,0.,12.0,0.,12.0,0.,12.0,0.,12.0
1981-08-28 12:30:27.810 ,7,1,0.,12.0,0.,12.0,0.,12.0,0.,12.0
1981-08-28 12:30:39.810 ,7,1,0.,12.0,0.,12.0,0.,12.0,0.,12.0
1981-08-28 12:30:51.810 ,6,1,0.,12.0,0.,12.0,0.,12.0,0.,12.0
1981-08-28 12:31:03.810 ,6,1,0.,12.0,0.,12.0,0.,12.0,0.,12.0
1981-08-28 12:31:15.810 ,5,1,0.,12.0,0.,12.0,0.,12.0,0.,12.0
1981-08-28 12:31:27.810 ,5,1,0.,12.0,0.,12.0,0.,12.0,0.,12.0
1981-08-28 12:31:39.810 ,4,1,0.,12.0,0.,12.0,0.,12.0,0.,12.0
1981-08-28 12:31:51.810 ,4,1,0.,12.0,0.,12.0,0.,12.0,0.,12.0
1981-08-28 12:32:03.810 ,3,1,0.,12.0,0.,12.0,0.,12.0,0.,12.0
1981-08-28 12:32:15.810 ,3,1,0.,12.0,0.,12.0,0.,12.0,0.,12.0
1981-08-28 12:32:27.810 ,2,1,0.,12.0,0.,12.0,0.,12.0,0.,12.0
1981-08-28 12:32:39.810 ,2,1,0.,12.0,0.,12.0,0.,12.0,0.,12.0
1981-08-28 12:32:51.810 ,1,1,0.,12.0,0.,12.0,0.,12.0,0.,12.0
1981-08-28 12:33:03.810 ,1,1,0.,12.0,0.,12.0,0.,12.0,0.,12.0
1981-08-28 12:33:15.810 ,0,1,0.,12.0,0.,12.0,0.,12.0,0.,12.0
1981-08-28 12:33:27.810 ,0,1,0.,12.0,0.,12.0,0.,12.0,0.,12.0
1981-08-28 12:33:39.810 ,0,1,0.,12.0,0.,12.0,0.,12.0,0.,12.0
1981-08-28 12:33:51.810 ,0,1,0.,12.0,0.,12.0,0.,12.0,0.,12.0
1981-08-28 12:34:03.810 ,1,1,0.,12.0,0.,12.0,0.,12.0,0.,12.0
1981-08-28 12:34:15.810 ,1,1,0.,12.0,0.,12.0,0.,12.0,0.,12.0
1981-08-28 12:34:27.810 ,2,1,0.,12.0,0.,12.0,0.,12.0,0.,12.0
1981-08-28 12:34:39.810 ,2,1,0.,12.0,0.,12.0,0.,12.0,0.,12.0
1981-08-28 12:34:51.810 ,3,1,0.,12.0,0.,12.0,0.,12.0,0.,12.0
1981-08-28 12:35:03.810 ,3,1,0.,12.0,0.,12.0,0.,12.0,0.,12.0
1981-08-28 12:35:15.810 ,4,1,0.,12.0,0.,12.0,0.,12.0,0.,12.0
1981-08-28 12:35:27.810 ,4,1,0.,12.0,0.,12.0,0.,12.0,0.,12.0
1981-08-28 12:35:39.810 ,5,1,0.,12.0,0.,12.0,0.,12.0,0.,12.0
1981-08-28 12:35:51.810 ,5,1,0.,12.0,0.,12.0,0.,12.0,0.,12.0
1981-08-28 12:36:03.810 ,6,1,0.,12.0,0.,12.0,0.,12.0,0.,12.0
1981-08-28 12:36:15.810 ,6,1,0.,12.0,0.,12.0,0.,12.0,0.,12.0
1981-08-28 12:36:27.810 ,7,1,0.,12.0,0.,12.0,0.,12.0,0.,12.0
1981-08-28 12:36:39.810 ,7,1,0.,12.0,0.,12.0,0.,12.0,0.,12.0
1981-08-28 12:36:51.810 ,7,1,0.,12.0,0.,12.0,0.,12.0,0.,12.0
1981-08-28 12:37:03.810 ,7,1,0.,12.0,0.,12.0,0.,12.0,0.,12.0
1981-08-28 12:37:15.810 ,7,0,0.,12.0,0.,12.0,0.,12.0,0.,12.0
1981-08-28 12:37:27.810 ,7,0,0.,12.0,0.,12.0,0.,12.0,0.,12.0
1981-08-28 12:37:39.810 ,6,1,0.,12.0,0.,12.0,0.,12.0,0.,12.0
1981-08-28 12:37:51.810 ,6,1,0.,12.0,0.,12.0,0.,12.0,0.,12.0
1981-08-28 12:38:03.810 ,6,0,0.,12.0,0.,12.0,0.,12.0,0.,12.0
1981-08-28 12:38:15.810 ,6,0,0.,12.0,0.,12.0,0.,12.0,0.,12.0
1981-08-28 12:38:27.810 ,5,1,0.,12.0,0.,12.0,0.,12.0,0.,12.0
1981-08-28 12:38:39.810 ,5,1,0.,12.0,0.,12.0,0.,12.0,0.,12.0
1981-08-28 12:38:51.810 ,5,0,0.,12.0,0.,12.0,0.,12.0,0.,12.0
1981-08-28 12:39:03.810 ,5,0,0.,12.0,0.,12.0,0.,12.0,0.,12.0
1981-08-28 12:39:15.810 ,4,1,0.,12.0,0.,12.0,0.,12.0,0.,12.0
1981-08-28 12:39:27.810 ,4,1,0.,12.0,0.,12.0,0.,12.0,0.,12.0
1981-08-28 12:39:39.810 ,4,0,0.,12.0,0.,12.0,0.,12.0,0.,12.0
1981-08-28 12:39:51.810 ,4,0,0.,12.0,0.,12.0,0.,12.0,0.,12.0
1981-08-28 12:40:03.810 ,3,1,0.,12.0,0.,12.0,0.,12.0,0.,12.0
1981-08-28 12:40:15.810 ,3,1,0.,12.0,0.,12.0,0.,12.0,0.,12.0
1981-08-28 12:40:27.810 ,3,0,0.,12.0,0.,12.0,0.,12.0,0.,12.0
1981-08-28 12:40:39.810 ,3,0,0.,12.0,0.,12.0,0.,12.0,0.,12.0
1981-08-28 12:40:51.810 ,2,1,0.,12.0,0.,12.0,0.,12.0,0.,12.0
1981-08-28 12:41:03.810 ,2,1,0.,12.0,0.,12.0,0.,12.0,0.,12.0
1981-08-28 12:41:15.810 ,2,0,0.,12.0,0.,12.0,0.,12.0,0.,12.0
1981-08-28 12:41:27.810 ,2,0,0.,12.0,0.,12.0,0.,12.0,0.,12.0
1981-08-28 12:41:39.810 ,1,1,0.,12.0,0.,12.0,0.,12.0,0.,12.0
1981-08-28 12:41:51.810 ,1,1,0.,12.0,0.,12.0,0.,12.0,0.,12.0
1981-08-28 12:42:03.810 ,1,0,0.,12.0,0.,12.0,0.,12.0,0.,12.0
1981-08-28 12:42:15.810 ,1,0,0.,12.0,0.,12.0,0.,12.0,0.,12.0
1981-08-28 12:42:27.810 ,0,1,0.,12.0,0.,12.0,0.,12.0,0.,12.0
1981-08-28 12:42:39.810 ,0,1,0.,12.0,0.,12.0,0.,12.0,0.,12.0
1981-08-28 12:42:51.810 ,0,0,0.,12.0,0.,12.0,0.,12.0,0.,12.0
1981-08-28 12:43:03.810 ,0,0,0.,12.0,0.,12.0,0.,12.0,0.,12.0
1981-08-28 12:43:15.810 ,0,1,0.,12.0,0.,12.0,0.,12.0,0.,12.0
1981-08-28 12:43:27.810 ,0,1,0.,12.0,0.,12.0,0.,12.0,0.,12.0
1981-08-28 12:43:39.810 ,0,0,0.,12.0,0.,12.0,0.,12.0,0.,12.0
1981-08-28 12:43:51.810 ,0,0,0.,12.0,0.,12.0,0.,12.0,0.,12.0
1981-08-28 12:44:03.810 ,1,1,0.,12.0,0.,12.0,0.,12.0,0.,12.0
1981-08-28 12:44:15.810 ,1,1,0.,12.0,0.,12.0,0.,12.0,0.,12.0
1981-08-28 12:44:27.810 ,1,0,0.,12.0,0.,12.0,0.,12.0,0.,12.0
1981-08-28 12:44:39.810 ,1,0,0.,12.0,0.,12.0,0.,12.0,0.,12.0
1981-08-28 12:44:51.810 ,2,1,0.,12.0,0.,12.0,0.,12.0,0.,12.0
1981-08-28 12:45:03.810 ,2,1,0.,12.0,0.,12.0,0.,12.0,0.,12.0
1981-08-28 12:45:15.810 ,2,0,0.,12.0,0.,12.0,0.,12.0,0.,12.0
1981-08-28 12:45:27.810 ,2,0,0.,12.0,0.,12.0,0.,12.0,0.,12.0
1981-08-28 12:45:39.810 ,3,1,0.,12.0,0.,12.0,0.,12.0,0.,12.0
1981-08-28 12:45:51.810 ,3,1,0.,12.0,0.,12.0,0.,12.0,0.,12.0
1981-08-28 12:46:03.810 ,3,0,0.,12.0,0.,12.0,0.,12.0,0.,12.0
1981-08-28 12:46:15.810 ,3,0,0.,12.0,0.,12.0,0.,12.0,0.,12.0
1981-08-28 12:46:27.810 ,4,1,0.,12.0,0.,12.0,0.,12.0,0.,12.0
1981-08-28 12:46:39.810 ,4,1,0.,12.0,0.,12.0,0.,12.0,0.,12.0
1981-08-28 12:46:51.810 ,4,0,0.,12.0,0.,12.0,0.,12.0,0.,12.0
1981-08-28 12:47:03.810 ,4,0,0.,12.0,0.,12.0,0.,12.0,0.,12.0
1981-08-28 12:47:15.810 ,5,1,0.,12.0,0.,12.0,0.,12.0,0.,12.0
1981-08-28 12:47:27.810 ,5,1,0.,12.0,0.,12.0,0.,12.0,0.,12.0
1981-08-28 12:47:39.810 ,5,0,0.,12.0,0.,12.0,0.,12.0,0.,12.0
1981-08-28 12:47:51.810 ,5,0,0.,12.0,0.,12.0,0.,12.0,0.,12.0
1981-08-28 12:48:03.810 ,6,1,0.,12.0,0.,12.0,0.,12.0,0.,12.0
1981-08-28 12:48:15.810 ,6,1,0.,12.0,0.,12.0,0.,12.0,0.,12.0
1981-08-28 12:48:27.810 ,6,0,0.,12.0,0.,12.0,0.,12.0,0.,12.0
1981-08-28 12:48:39.810 ,6,0,0.,12.0,0.,12.0,0.,12.0,0.,12.0
1981-08-28 12:48:51.810 ,7,1,0.,12.0,0.,12.0,0.,12.0,0.,12.0
1981-08-28 12:49:03.810 ,7,1,0.,12.0,0.,12.0,0.,12.0,0.,12.0
1981-08-28 12:49:15.810 ,7,0,0.,12.0,0.,12.0,0.,12.0,0.,12.0
1981-08-28 12:49:27.810 ,7,0,0.,12.0,0.,12.0,0.,12.0,0.,12.0
1981-08-28 12:49:39.810 ,7,1,0.,12.0,0.,12.0,0.,12.0,0.,12.0
1981-08-28 12:49:51.810 ,7,1,0.,12.0,0.,12.0,0.,12.0,0.,12.0
1981-08-28 12:50:03.810 ,6,1,0.,12.0,0.,12.0,0.,12.0,0.,12.0
1981-08-28 12:50:15.810 ,6,1,0.,12.0,0.,12.0,0.,12.0,0.,12.0
1981-08-28 12:50:27.810 ,5,1,0.,12.0,0.,12.0,0.,12.0,0.,12.0
1981-08-28 12:50:39.810 ,5,1,0.,12.0,0.,12.0,0.,12.0,0.,12.0
1981-08-28 12:50:51.810 ,4,1,0.,12.0,0.,12.0,0.,12.0,0.,12.0
1981-08-28 12:51:03.810 ,4,1,0.,12.0,0.,12.0,0.,12.0,0.,12.0
1981-08-28 12:51:15.810 ,3,1,0.,12.0,0.,12.0,0.,12.0,0.,12.0
1981-08-28 12:51:27.810 ,3,1,0.,12.0,0.,12.0,0.,12.0,0.,12.0
1981-08-28 12:51:39.810 ,2,1,0.,12.0,0.,12.0,0.,12.0,0.,12.0
1981-08-28 12:51:51.810 ,2,1,0.,12.0,0.,12.0,0.,12.0,0.,12.0
1981-08-28 12:52:03.810 ,1,1,0.,12.0,0.,12.0,0.,12.0,0.,12.0
1981-08-28 12:52:15.810 ,1,1,0.,12.0,0.,12.0,0.,12.0,0.,12.0
1981-08-28 12:52:27.810 ,0,1,0.,12.0,0.,12.0,0.,12.0,0.,12.0
1981-08-28 12:52:39.810 ,0,1,0.,12.0,0.,12.0,0.,12.0,0.,12.0
1981-08-28 12:52:51.810 ,0,1,0.,12.0,0.,12.0,0.,12.0,0.,12.0
1981-08-28 12:53:03.810 ,0,1,0.,12.0,0.,12.0,0.,12.0,0.,12.0
1981-08-28 12:53:15.810 ,1,1,0.,12.0,0.,12.0,0.,12.0,0.,12.0
1981-08-28 12:53:27.810 ,1,1,0.,12.0,0.,12.0,0.,12.0,0.,12.0
1981-08-28 12:53:39.810 ,2,1,0.,12.0,0.,12.0,0.,12.0,0.,12.0
1981-08-28 12:53:51.810 ,2,1,0.,12.0,0.,12.0,0.,12.0,0.,12.0
1981-08-28 12:54:03.810 ,3,1,0.,12.0,0.,12.0,0.,12.0,0.,12.0
1981-08-28 12:54:15.810 ,3,1,0.,12.0,0.,12.0,0.,12.0,0.,12.0
1981-08-28 12:54:27.810 ,4,1,0.,12.0,0.,12.0,0.,12.0,0.,12.0
1981-08-28 12:54:39.810 ,4,1,0.,12.0,0.,12.0,0.,12.0,0.,12.0
1981-08-28 12:54:51.810 ,5,1,0.,12.0,0.,12.0,0.,12.0,0.,12.0
1981-08-28 12:55:03.810 ,5,1,0.,12.0,0.,12.0,0.,12.0,0.,12.0
1981-08-28 12:55:15.810 ,6,1,0.,12.0,0.,12.0,0.,12.0,0.,12.0
1981-08-28 12:55:27.810 ,6,1,0.,12.0,0.,12.0,0.,12.0,0.,12.0
1981-08-28 12:55:39.810 ,7,1,0.,12.0,0.,12.0,0.,12.0,0.,12.0
1981-08-28 12:55:51.810 ,7,1,0.,12.0,0.,12.0,0.,12.0,0.,12.0
1981-08-28 12:56:03.810 ,7,1,0.,12.0,0.,12.0,0.,12.0,0.,12.0
1981-08-28 12:56:15.810 ,7,1,0.,12.0,0.,12.0,0.,12.0,0.,12.0
1981-08-28 12:56:27.810 ,7,0,0.,12.0,0.,12.0,0.,12.0,0.,12.0
1981-08-28 12:56:39.810 ,7,0,0.,12.0,0.,12.0,0.,12.0,0.,12.0
1981-08-28 12:56:51.810 ,6,1,0.,12.0,0.,12.0,0.,12.0,0.,12.0
1981-08-28 12:57:03.810 ,6,1,0.,12.0,0.,12.0,0.,12.0,0.,12.0
1981-08-28 12:57:15.810 ,0,0,0.,12.0,0.,12.0,0.,12.0,0.,12.0
1981-08-28 12:57:27.810 ,0,0,0.,12.0,0.,12.0,0.,12.0,0.,12.0
1981-08-28 12:57:39.810 ,5,1,0.,12.0,0.,12.0,0.,12.0,0.,12.0
1981-08-28 12:57:51.810 ,5,1,0.,12.0,0.,12.0,0.,12.0,0.,12.0
1981-08-28 12:58:03.810 ,5,0,0.,12.0,0.,12.0,0.,12.0,0.,12.0
1981-08-28 12:58:15.810 ,5,0,0.,12.0,0.,12.0,0.,12.0,0.,12.0
1981-08-28 12:58:27.810 ,4,1,0.,12.0,0.,12.0,0.,12.0,0.,12.0
1981-08-28 12:58:39.810 ,4,1,0.,12.0,0.,12.0,0.,12.0,0.,12.0
1981-08-28 12:58:51.810 ,4,0,0.,12.0,0.,12.0,0.,12.0,0.,12.0
1981-08-28 12:59:03.810 ,4,0,0.,12.0,0.,12.0,0.,12.0,0.,12.0
1981-08-28 12:59:15.810 ,3,1,0.,12.0,0.,12.0,0.,12.0,0.,12.0
1981-08-28 12:59:27.810 ,3,1,0.,12.0,0.,12.0,0.,12.0,0.,12.0
1981-08-28 12:59:39.810 ,3,0,0.,12.0,0.,12.0,0.,12.0,0.,12.0
1981-08-28 12:59:51.810 ,3,0,0.,12.0,0.,12.0,0.,12.0,0.,12.0
1981-08-28 13:00:03.810 ,2,1,0.,12.0,0.,12.0,0.,12.0,0.,12.0
1981-08-28 13:00:15.810 ,2,1,0.,12.0,0.,12.0,0.,12.0,0.,12.0
1981-08-28 13:00:27.810 ,2,0,0.,12.0,0.,12.0,0.,12.0,0.,12.0
1981-08-28 13:00:39.810 ,2,0,0.,12.0,0.,12.0,0.,12.0,0.,12.0
1981-08-28 13:00:51.810 ,1,1,0.,12.0,0.,12.0,0.,12.0,0.,12.0
1981-08-28 13:01:03.810 ,1,1,0.,12.0,0.,12.0,0.,12.0,0.,12.0
1981-08-28 13:01:15.810 ,1,0,0.,12.0,0.,12.0,0.,12.0,0.,12.0
1981-08-28 13:01:27.810 ,1,0,0.,12.0,0.,12.0,0.,12.0,0.,12.0
1981-08-28 13:01:39.810 ,0,1,0.,12.0,0.,12.0,0.,12.0,0.,12.0
1981-08-28 13:01:51.810 ,0,1,0.,12.0,0.,12.0,0.,12.0,0.,12.0
1981-08-28 13:02:03.810 ,0,0,0.,12.0,0.,12.0,0.,12.0,0.,12.0
1981-08-28 13:02:15.810 ,0,0,0.,12.0,0.,12.0,0.,12.0,0.,12.0
1981-08-28 13:02:27.810 ,0,1,0.,12.0,0.,12.0,0.,12.0,0.,12.0
1981-08-28 13:02:39.810 ,0,1,0.,12.0,0.,12.0,0.,12.0,0.,12.0
1981-08-28 13:02:51.810 ,0,0,0.,12.0,0.,12.0,0.,12.0,0.,12.0
1981-08-28 13:03:03.810 ,0,0,0.,12.0,0.,12.0,0.,12.0,0.,12.0
1981-08-28 13:03:15.810 ,1,1,0.,12.0,0.,12.0,0.,12.0,0.,12.0
1981-08-28 13:03:27.810 ,1,1,0.,12.0,0.,12.0,0.,12.0,0.,12.0
1981-08-28 13:03:39.810 ,1,0,0.,12.0,0.,12.0,0.,12.0,0.,12.0
1981-08-28 13:03:51.810 ,1,0,0.,12.0,0.,12.0,0.,12.0,0.,12.0
1981-08-28 13:04:03.810 ,2,1,0.,12.0,0.,12.0,0.,12.0,0.,12.0
1981-08-28 13:04:15.810 ,2,1,0.,12.0,0.,12.0,0.,12.0,0.,12.0
1981-08-28 13:04:27.800 ,2,0,0.,12.0,0.,12.0,0.,12.0,0.,12.0
1981-08-28 13:04:39.800 ,2,0,0.,12.0,0.,12.0,0.,12.0,0.,12.0
1981-08-28 13:04:51.800 ,3,1,0.,12.0,0.,12.0,0.,12.0,0.,12.0
1981-08-28 13:05:03.800 ,3,1,0.,12.0,0.,12.0,0.,12.0,0.,12.0
1981-08-28 13:05:15.800 ,3,0,0.,12.0,0.,12.0,0.,12.0,0.,12.0
1981-08-28 13:05:27.800 ,3,0,0.,12.0,0.,12.0,0.,12.0,0.,12.0
1981-08-28 13:05:39.800 ,4,1,0.,12.0,0.,12.0,0.,12.0,0.,12.0
1981-08-28 13:05:51.800 ,4,1,0.,12.0,0.,12.0,0.,12.0,0.,12.0
1981-08-28 13:06:03.800 ,4,0,0.,12.0,0.,12.0,0.,12.0,0.,12.0
1981-08-28 13:06:15.800 ,4,0,0.,12.0,0.,12.0,0.,12.0,0.,12.0
1981-08-28 13:06:27.800 ,5,1,0.,12.0,0.,12.0,0.,12.0,0.,12.0
1981-08-28 13:06:39.800 ,5,1,0.,12.0,0.,12.0,0.,12.0,0.,12.0
1981-08-28 13:06:51.800 ,5,0,0.,12.0,0.,12.0,0.,12.0,0.,12.0
1981-08-28 13:07:03.800 ,5,0,0.,12.0,0.,12.0,0.,12.0,0.,12.0
1981-08-28 13:07:15.800 ,6,1,0.,12.0,0.,12.0,0.,12.0,0.,12.0
1981-08-28 13:07:27.800 ,6,1,0.,12.0,0.,12.0,0.,12.0,0.,12.0
1981-08-28 13:07:39.800 ,6,0,0.,12.0,0.,12.0,0.,12.0,0.,12.0
1981-08-28 13:07:51.800 ,6,0,0.,12.0,0.,12.0,0.,12.0,0.,12.0
1981-08-28 13:08:03.800 ,7,1,0.,12.0,0.,12.0,0.,12.0,0.,12.0
1981-08-28 13:08:15.800 ,7,1,0.,12.0,0.,12.0,0.,12.0,0.,12.0
1981-08-28 13:08:27.800 ,7,0,0.,12.0,0.,12.0,0.,12.0,0.,12.0
1981-08-28 13:08:39.800 ,7,0,0.,12.0,0.,12.0,0.,12.0,0.,12.0
1981-08-28 13:08:51.800 ,7,1,0.,12.0,0.,12.0,0.,12.0,0.,12.0
1981-08-28 13:09:03.800 ,7,1,0.,12.0,0.,12.0,0.,12.0,0.,12.0
1981-08-28 13:09:15.800 ,6,1,0.,12.0,0.,12.0,0.,12.0,0.,12.0
1981-08-28 13:09:27.800 ,6,1,0.,12.0,0.,12.0,0.,12.0,0.,12.0
1981-08-28 13:09:39.800 ,0,0,0.,12.0,0.,12.0,0.,12.0,0.,12.0
1981-08-28 13:09:51.800 ,0,0,0.,12.0,0.,12.0,0.,12.0,0.,12.0
1981-08-28 13:10:03.800 ,4,1,0.,12.0,0.,12.0,0.,12.0,0.,12.0
1981-08-28 13:10:15.800 ,4,1,0.,12.0,0.,12.0,0.,12.0,0.,12.0
1981-08-28 13:10:27.800 ,3,1,0.,12.0,0.,12.0,0.,12.0,0.,12.0
1981-08-28 13:10:39.800 ,3,1,0.,12.0,0.,12.0,0.,12.0,0.,12.0
1981-08-28 13:10:51.800 ,2,1,0.,12.0,0.,12.0,0.,12.0,0.,12.0
1981-08-28 13:11:03.800 ,2,1,0.,12.0,0.,12.0,0.,12.0,0.,12.0
1981-08-28 13:11:15.800 ,1,1,0.,12.0,0.,12.0,0.,12.0,0.,12.0
1981-08-28 13:11:27.800 ,1,1,0.,12.0,0.,12.0,0.,12.0,0.,12.0
1981-08-28 13:11:39.800 ,0,1,0.,12.0,0.,12.0,0.,12.0,0.,12.0
1981-08-28 13:11:51.800 ,0,1,0.,12.0,0.,12.0,0.,12.0,0.,12.0
1981-08-28 13:12:03.800 ,0,1,0.,12.0,0.,12.0,0.,12.0,0.,12.0
1981-08-28 13:12:15.800 ,0,1,0.,12.0,0.,12.0,0.,12.0,0.,12.0
1981-08-28 13:12:27.800 ,1,1,0.,12.0,0.,12.0,0.,12.0,0.,12.0
1981-08-28 13:12:39.800 ,1,1,0.,12.0,0.,12.0,0.,12.0,0.,12.0
1981-08-28 13:12:51.800 ,2,1,0.,12.0,0.,12.0,0.,12.0,0.,12.0
1981-08-28 13:13:03.800 ,2,1,0.,12.0,0.,12.0,0.,12.0,0.,12.0
1981-08-28 13:13:15.800 ,3,1,0.,12.0,0.,12.0,0.,12.0,0.,12.0
1981-08-28 13:13:27.800 ,3,1,0.,12.0,0.,12.0,0.,12.0,0.,12.0
1981-08-28 13:13:39.800 ,4,1,0.,12.0,0.,12.0,0.,12.0,0.,12.0
1981-08-28 13:13:51.800 ,4,1,0.,12.0,0.,12.0,0.,12.0,0.,12.0
1981-08-28 13:14:03.800 ,5,1,0.,12.0,0.,12.0,0.,12.0,0.,12.0
1981-08-28 13:14:15.800 ,5,1,0.,12.0,0.,12.0,0.,12.0,0.,12.0
1981-08-28 13:14:27.800 ,6,1,0.,12.0,0.,12.0,0.,12.0,0.,12.0
1981-08-28 13:14:39.800 ,6,1,0.,12.0,0.,12.0,0.,12.0,0.,12.0
1981-08-28 13:14:51.800 ,7,1,0.,12.0,0.,12.0,0.,12.0,0.,12.0
1981-08-28 13:15:03.800 ,7,1,0.,12.0,0.,12.0,0.,12.0,0.,12.0
1981-08-28 13:15:15.800 ,7,1,0.,12.0,0.,12.0,0.,12.0,0.,12.0
1981-08-28 13:15:27.800 ,7,1,0.,12.0,0.,12.0,0.,12.0,0.,12.0
1981-08-28 13:15:39.800 ,7,0,0.,12.0,0.,12.0,0.,12.0,0.,12.0
1981-08-28 13:15:51.800 ,7,0,0.,12.0,0.,12.0,0.,12.0,0.,12.0
1981-08-28 13:16:03.800 ,6,1,0.,12.0,0.,12.0,0.,12.0,0.,12.0
1981-08-28 13:16:15.800 ,6,1,0.,12.0,0.,12.0,0.,12.0,0.,12.0
1981-08-28 13:16:27.800 ,6,0,0.,12.0,0.,12.0,0.,12.0,0.,12.0
1981-08-28 13:16:39.800 ,6,0,0.,12.0,0.,12.0,0.,12.0,0.,12.0
1981-08-28 13:16:51.800 ,5,1,0.,12.0,0.,12.0,0.,12.0,0.,12.0
1981-08-28 13:17:03.800 ,5,1,0.,12.0,0.,12.0,0.,12.0,0.,12.0
1981-08-28 13:17:15.800 ,5,0,0.,12.0,0.,12.0,0.,12.0,0.,12.0
1981-08-28 13:17:27.800 ,5,0,0.,12.0,0.,12.0,0.,12.0,0.,12.0
1981-08-28 13:17:39.800 ,4,1,0.,12.0,0.,12.0,0.,12.0,0.,12.0
1981-08-28 13:17:51.800 ,4,1,0.,12.0,0.,12.0,0.,12.0,0.,12.0
1981-08-28 13:18:03.800 ,4,0,0.,12.0,0.,12.0,0.,12.0,0.,12.0
1981-08-28 13:18:15.800 ,4,0,0.,12.0,0.,12.0,0.,12.0,0.,12.0
1981-08-28 13:18:27.800 ,3,1,0.,12.0,0.,12.0,0.,12.0,0.,12.0
1981-08-28 13:18:39.800 ,3,1,0.,12.0,0.,12.0,0.,12.0,0.,12.0
1981-08-28 13:18:51.800 ,3,0,0.,12.0,0.,12.0,0.,12.0,0.,12.0
1981-08-28 13:19:03.800 ,3,0,0.,12.0,0.,12.0,0.,12.0,0.,12.0
1981-08-28 13:19:15.800 ,2,1,0.,12.0,0.,12.0,0.,12.0,0.,12.0
1981-08-28 13:19:27.800 ,2,1,0.,12.0,0.,12.0,0.,12.0,0.,12.0
1981-08-28 13:19:39.800 ,2,0,0.,12.0,0.,12.0,0.,12.0,0.,12.0
1981-08-28 13:19:51.800 ,2,0,0.,12.0,0.,12.0,0.,12.0,0.,12.0
1981-08-28 13:20:03.800 ,1,1,0.,12.0,0.,12.0,0.,12.0,0.,12.0
1981-08-28 13:20:15.800 ,1,1,0.,12.0,0.,12.0,0.,12.0,0.,12.0
1981-08-28 13:20:27.800 ,1,0,0.,12.0,0.,12.0,0.,12.0,0.,12.0
1981-08-28 13:20:39.800 ,1,0,0.,12.0,0.,12.0,0.,12.0,0.,12.0